Station Historical Data
Daily Summary for May 17, 2011 Units:  English    Metric   Both
« Previous Day
Next Day »
Daily Weekly Monthly Yearly Custom
  High: Low: Average:
Temperature: 61.5 °F 43.4 °F 52.9 °F
Dew Point: 49.9 °F 41.0 °F 45.8 °F
Humidity: 93% 54% 78%
Wind Speed: 15.0mph 0.0mph 3.6mph
Wind Gust: 15.0mph - -
Wind- - WNW
Pressure: 29.87 in 29.80 in -
Precipitation: 0.00 in    
Historical Graphs
 
 
Tabular Data for May 17, 2011
Time Temperature Dew Point Pressure Wind Wind Speed Wind Gust Humidity Rainfall Rate (Hourly) Conditions
00:00 51.8 °F 48.4 °F 29.87 in NW 2.0 mph 4.0 mph 88% 0.00 in
00:01 51.8 °F 48.4 °F 29.87 in NW 1.0 mph 3.0 mph 88% 0.00 in
00:04 51.7 °F 48.3 °F 29.87 in WNW 2.0 mph 3.0 mph 88% 0.00 in
00:06 51.6 °F 48.2 °F 29.87 in NW 2.0 mph 3.0 mph 88% 0.00 in
00:11 51.6 °F 48.2 °F 29.87 in WNW 1.0 mph 3.0 mph 88% 0.00 in
00:16 51.5 °F 48.1 °F 29.87 in WNW 2.0 mph 3.0 mph 88% 0.00 in
00:17 51.5 °F 48.1 °F 29.87 in WNW 3.0 mph 3.0 mph 88% 0.00 in
00:22 51.5 °F 48.4 °F 29.87 in WNW 2.0 mph 3.0 mph 89% 0.00 in
00:27 51.3 °F 48.2 °F 29.86 in NW 2.0 mph 2.0 mph 89% 0.00 in
00:32 51.2 °F 48.1 °F 29.86 in WNW 2.0 mph 3.0 mph 89% 0.00 in
00:33 51.2 °F 48.1 °F 29.86 in NW 1.0 mph 3.0 mph 89% 0.00 in
00:36 51.0 °F 47.9 °F 29.86 in NW 1.0 mph 2.0 mph 89% 0.00 in
00:37 51.0 °F 48.2 °F 29.86 in WNW 4.0 mph 4.0 mph 90% 0.00 in
00:41 50.8 °F 48.0 °F 29.86 in WNW 2.0 mph 3.0 mph 90% 0.00 in
00:46 50.5 °F 47.7 °F 29.86 in NW 3.0 mph 4.0 mph 90% 0.00 in
00:47 50.5 °F 47.7 °F 29.86 in NW 2.0 mph 4.0 mph 90% 0.00 in
00:52 50.3 °F 47.8 °F 29.85 in NW 2.0 mph 3.0 mph 91% 0.00 in
00:57 50.1 °F 47.6 °F 29.85 in WNW 2.0 mph 2.0 mph 91% 0.00 in
00:58 50.0 °F 47.5 °F 29.85 in WNW 1.0 mph 2.0 mph 91% 0.00 in
01:02 49.7 °F 47.2 °F 29.85 in WNW 2.0 mph 2.0 mph 91% 0.00 in
01:07 49.5 °F 47.3 °F 29.85 in WNW 2.0 mph 3.0 mph 92% 0.00 in
01:12 49.3 °F 47.1 °F 29.85 in NW 1.0 mph 4.0 mph 92% 0.00 in
01:17 49.2 °F 47.0 °F 29.85 in NW 2.0 mph 4.0 mph 92% 0.00 in
01:22 48.9 °F 46.7 °F 29.85 in NW 2.0 mph 3.0 mph 92% 0.00 in
01:27 48.7 °F 46.8 °F 29.84 in NW 3.0 mph 3.0 mph 93% 0.00 in
01:28 48.7 °F 46.8 °F 29.84 in NW 2.0 mph 3.0 mph 93% 0.00 in
01:33 48.6 °F 46.7 °F 29.84 in WNW 2.0 mph 4.0 mph 93% 0.00 in
01:38 48.5 °F 46.6 °F 29.84 in WNW 2.0 mph 4.0 mph 93% 0.00 in
01:43 48.5 °F 46.6 °F 29.84 in NW 1.0 mph 4.0 mph 93% 0.00 in
01:48 48.5 °F 46.3 °F 29.84 in WNW 3.0 mph 5.0 mph 92% 0.00 in
01:53 48.7 °F 46.5 °F 29.84 in WNW 2.0 mph 5.0 mph 92% 0.00 in
01:54 48.7 °F 46.5 °F 29.84 in NW 3.0 mph 4.0 mph 92% 0.00 in
01:59 48.7 °F 46.2 °F 29.84 in NW 3.0 mph 5.0 mph 91% 0.00 in
02:04 48.6 °F 46.1 °F 29.84 in WNW 3.0 mph 4.0 mph 91% 0.00 in
02:09 48.5 °F 46.0 °F 29.84 in WNW 2.0 mph 3.0 mph 91% 0.00 in
02:14 48.2 °F 46.0 °F 29.83 in NW 2.0 mph 2.0 mph 92% 0.00 in
02:19 48.0 °F 45.8 °F 29.83 in NW 1.0 mph 3.0 mph 92% 0.00 in
02:24 47.8 °F 45.6 °F 29.83 in WNW 1.0 mph 4.0 mph 92% 0.00 in
02:29 47.8 °F 45.6 °F 29.83 in WNW 4.0 mph 4.0 mph 92% 0.00 in
02:31 47.8 °F 45.6 °F 29.83 in WNW 5.0 mph 5.0 mph 92% 0.00 in
02:32 47.9 °F 45.7 °F 29.83 in WNW 2.0 mph 5.0 mph 92% 0.00 in
02:35 47.8 °F 45.6 °F 29.83 in NW 4.0 mph 4.0 mph 92% 0.00 in
02:36 47.8 °F 45.6 °F 29.83 in WNW 4.0 mph 4.0 mph 92% 0.00 in
02:40 47.8 °F 45.3 °F 29.83 in WNW 2.0 mph 4.0 mph 91% 0.00 in
02:45 47.7 °F 45.2 °F 29.83 in NW 2.0 mph 5.0 mph 91% 0.00 in
02:50 47.6 °F 45.1 °F 29.83 in NW 4.0 mph 5.0 mph 91% 0.00 in
02:51 47.6 °F 45.1 °F 29.83 in WNW 2.0 mph 4.0 mph 91% 0.00 in
02:56 47.4 °F 44.9 °F 29.83 in WNW 2.0 mph 3.0 mph 91% 0.00 in
02:57 47.4 °F 44.9 °F 29.83 in WNW 3.0 mph 3.0 mph 91% 0.00 in
02:59 47.3 °F 44.8 °F 29.83 in WNW 3.0 mph 5.0 mph 91% 0.00 in
03:04 47.1 °F 44.6 °F 29.82 in NW 2.0 mph 2.0 mph 91% 0.00 in
03:09 47.0 °F 44.5 °F 29.82 in WNW 2.0 mph 3.0 mph 91% 0.00 in
03:14 46.9 °F 44.4 °F 29.82 in WNW 2.0 mph 4.0 mph 91% 0.00 in
03:15 46.9 °F 44.4 °F 29.82 in WNW 2.0 mph 4.0 mph 91% 0.00 in
03:20 46.8 °F 44.3 °F 29.82 in West 2.0 mph 5.0 mph 91% 0.00 in
03:25 46.8 °F 44.3 °F 29.82 in WNW 3.0 mph 5.0 mph 91% 0.00 in
03:26 46.7 °F 44.2 °F 29.82 in NNW 2.0 mph 5.0 mph 91% 0.00 in
03:31 46.7 °F 44.2 °F 29.82 in WNW 2.0 mph 7.0 mph 91% 0.00 in
03:32 46.7 °F 44.2 °F 29.82 in NW 2.0 mph 4.0 mph 91% 0.00 in
03:33 46.7 °F 44.2 °F 29.82 in NW 3.0 mph 3.0 mph 91% 0.00 in
03:37 46.7 °F 43.9 °F 29.82 in NW 2.0 mph 6.0 mph 90% 0.00 in
03:39 46.7 °F 43.9 °F 29.82 in NW 3.0 mph 6.0 mph 90% 0.00 in
03:44 46.8 °F 43.7 °F 29.82 in NW 3.0 mph 6.0 mph 89% 0.00 in
03:49 46.5 °F 43.7 °F 29.82 in NNW 3.0 mph 4.0 mph 90% 0.00 in
03:54 46.4 °F 43.6 °F 29.82 in WNW 4.0 mph 4.0 mph 90% 0.00 in
03:55 46.4 °F 43.6 °F 29.82 in NW 3.0 mph 6.0 mph 90% 0.00 in
03:59 46.3 °F 43.5 °F 29.82 in NW 2.0 mph 5.0 mph 90% 0.00 in
04:04 46.3 °F 43.2 °F 29.82 in NW 3.0 mph 6.0 mph 89% 0.00 in
04:09 46.1 °F 43.0 °F 29.82 in NW 5.0 mph 6.0 mph 89% 0.00 in
04:14 46.0 °F 43.0 °F 29.82 in NW 3.0 mph 5.0 mph 89% 0.00 in
04:19 45.9 °F 42.8 °F 29.82 in NW 2.0 mph 5.0 mph 89% 0.00 in
04:24 45.6 °F 42.8 °F 29.82 in NW 3.0 mph 4.0 mph 90% 0.00 in
04:29 45.6 °F 42.5 °F 29.82 in NW 3.0 mph 5.0 mph 89% 0.00 in
04:34 45.6 °F 42.5 °F 29.82 in NW 4.0 mph 5.0 mph 89% 0.00 in
04:36 45.5 °F 42.5 °F 29.82 in NNW 5.0 mph 5.0 mph 89% 0.00 in
04:40 45.5 °F 42.5 °F 29.82 in WNW 5.0 mph 5.0 mph 89% 0.00 in
04:45 45.4 °F 42.3 °F 29.82 in NW 7.0 mph 7.0 mph 89% 0.00 in
04:50 45.4 °F 42.3 °F 29.82 in NW 4.0 mph 5.0 mph 89% 0.00 in
04:55 45.3 °F 42.3 °F 29.82 in NW 4.0 mph 6.0 mph 89% 0.00 in
04:56 45.3 °F 42.3 °F 29.82 in NW 4.0 mph 6.0 mph 89% 0.00 in
04:57 45.2 °F 42.2 °F 29.82 in NNW 3.0 mph 6.0 mph 89% 0.00 in
05:01 45.3 °F 42.3 °F 29.82 in North 3.0 mph 5.0 mph 89% 0.00 in
05:03 45.2 °F 42.2 °F 29.82 in NNW 3.0 mph 5.0 mph 89% 0.00 in
05:08 45.2 °F 42.2 °F 29.82 in NW 4.0 mph 6.0 mph 89% 0.00 in
05:13 45.2 °F 42.2 °F 29.81 in NW 4.0 mph 6.0 mph 89% 0.00 in
05:18 45.0 °F 42.0 °F 29.82 in NNW 3.0 mph 6.0 mph 89% 0.00 in
05:24 44.9 °F 41.9 °F 29.81 in NW 3.0 mph 5.0 mph 89% 0.00 in
05:29 44.8 °F 42.0 °F 29.81 in NNW 4.0 mph 6.0 mph 90% 0.00 in
05:31 44.8 °F 42.0 °F 29.81 in NNW 3.0 mph 6.0 mph 90% 0.00 in
05:34 44.7 °F 42.0 °F 29.81 in NW 3.0 mph 5.0 mph 90% 0.00 in
05:35 44.7 °F 42.0 °F 29.81 in NNW 2.0 mph 5.0 mph 90% 0.00 in
05:36 44.7 °F 42.0 °F 29.81 in NW 3.0 mph 6.0 mph 90% 0.00 in
05:41 44.7 °F 42.0 °F 29.81 in NNW 4.0 mph 6.0 mph 90% 0.00 in
05:46 44.5 °F 41.8 °F 29.81 in NW 4.0 mph 6.0 mph 90% 0.00 in
05:51 44.4 °F 41.7 °F 29.81 in NNW 2.0 mph 4.0 mph 90% 0.00 in
05:52 44.4 °F 41.7 °F 29.81 in NW 1.0 mph 4.0 mph 90% 0.00 in
05:57 44.3 °F 41.6 °F 29.81 in NW 4.0 mph 4.0 mph 90% 0.00 in
05:58 44.3 °F 41.6 °F 29.81 in NNW 2.0 mph 4.0 mph 90% 0.00 in
06:02 44.1 °F 41.4 °F 29.81 in NNW 3.0 mph 4.0 mph 90% 0.00 in
06:07 44.0 °F 41.5 °F 29.81 in NNW 2.0 mph 3.0 mph 91% 0.00 in
06:12 43.9 °F 41.5 °F 29.81 in NNW 2.0 mph 4.0 mph 91% 0.00 in
06:17 43.7 °F 41.2 °F 29.81 in NNW 4.0 mph 5.0 mph 91% 0.00 in
06:22 43.7 °F 41.2 °F 29.81 in NNW 3.0 mph 6.0 mph 91% 0.00 in
06:27 43.7 °F 41.2 °F 29.82 in NW 5.0 mph 5.0 mph 91% 0.00 in
06:28 43.7 °F 41.2 °F 29.82 in NNW 3.0 mph 5.0 mph 91% 0.00 in
06:32 43.7 °F 41.2 °F 29.82 in NW 3.0 mph 5.0 mph 91% 0.00 in
06:33 43.7 °F 41.2 °F 29.82 in NW 2.0 mph 5.0 mph 91% 0.00 in
06:37 43.6 °F 41.2 °F 29.82 in NW 3.0 mph 5.0 mph 91% 0.00 in
06:42 43.5 °F 41.0 °F 29.82 in North 3.0 mph 6.0 mph 91% 0.00 in
06:47 43.5 °F 41.0 °F 29.82 in NW 5.0 mph 6.0 mph 91% 0.00 in
06:52 43.5 °F 41.0 °F 29.82 in NW 3.0 mph 6.0 mph 91% 0.00 in
06:54 43.5 °F 41.0 °F 29.82 in NNW 4.0 mph 6.0 mph 91% 0.00 in
06:57 43.5 °F 41.3 °F 29.82 in NNW 3.0 mph 5.0 mph 92% 0.00 in
06:58 43.5 °F 41.3 °F 29.82 in NW 5.0 mph 5.0 mph 92% 0.00 in
07:03 43.4 °F 41.0 °F 29.82 in NNW 5.0 mph 5.0 mph 91% 0.00 in
07:08 43.5 °F 41.0 °F 29.82 in NNW 3.0 mph 5.0 mph 91% 0.00 in
07:13 43.6 °F 41.2 °F 29.82 in NNW 2.0 mph 5.0 mph 91% 0.00 in
07:18 43.6 °F 41.2 °F 29.83 in NNW 3.0 mph 6.0 mph 91% 0.00 in
07:23 43.8 °F 41.3 °F 29.83 in NNW 2.0 mph 7.0 mph 91% 0.00 in
07:28 44.1 °F 41.7 °F 29.83 in NNW 3.0 mph 4.0 mph 91% 0.00 in
07:33 44.6 °F 41.8 °F 29.83 in North 4.0 mph 6.0 mph 90% 0.00 in
07:35 44.8 °F 42.0 °F 29.83 in North 4.0 mph 8.0 mph 90% 0.00 in
07:36 44.9 °F 41.9 °F 29.83 in NNW 5.0 mph 8.0 mph 89% 0.00 in
07:38 45.1 °F 42.1 °F 29.83 in NNW 2.0 mph 5.0 mph 89% 0.00 in
07:43 45.4 °F 42.3 °F 29.83 in North 5.0 mph 5.0 mph 89% 0.00 in
07:48 45.7 °F 42.4 °F 29.83 in North 5.0 mph 6.0 mph 88% 0.00 in
07:53 46.0 °F 42.7 °F 29.84 in NNW 4.0 mph 6.0 mph 88% 0.00 in
07:54 46.0 °F 42.7 °F 29.84 in North 5.0 mph 6.0 mph 88% 0.00 in
07:59 46.2 °F 42.8 °F 29.83 in NNW 4.0 mph 6.0 mph 88% 0.00 in
08:04 46.5 °F 43.1 °F 29.84 in NNE 5.0 mph 7.0 mph 88% 0.00 in
08:09 46.9 °F 43.2 °F 29.84 in NNW 5.0 mph 5.0 mph 87% 0.00 in
08:14 47.2 °F 43.8 °F 29.84 in NW 3.0 mph 5.0 mph 88% 0.00 in
08:19 47.4 °F 43.4 °F 29.84 in NW 3.0 mph 5.0 mph 86% 0.00 in
08:24 47.9 °F 44.2 °F 29.84 in NW 3.0 mph 4.0 mph 87% 0.00 in
08:29 48.1 °F 44.1 °F 29.85 in WNW 4.0 mph 5.0 mph 86% 0.00 in
08:32 48.3 °F 44.6 °F 29.85 in North 5.0 mph 6.0 mph 87% 0.00 in
08:34 48.5 °F 44.5 °F 29.85 in NW 4.0 mph 6.0 mph 86% 0.00 in
08:36 48.5 °F 44.5 °F 29.85 in NW 4.0 mph 6.0 mph 86% 0.00 in
08:38 48.6 °F 44.6 °F 29.85 in NW 4.0 mph 6.0 mph 86% 0.00 in
08:43 48.5 °F 44.5 °F 29.85 in NNW 4.0 mph 5.0 mph 86% 0.00 in
08:48 48.6 °F 44.6 °F 29.85 in North 3.0 mph 5.0 mph 86% 0.00 in
08:53 49.2 °F 45.5 °F 29.85 in NW 4.0 mph 5.0 mph 87% 0.00 in
08:55 49.4 °F 45.7 °F 29.85 in NNW 4.0 mph 5.0 mph 87% 0.00 in
08:58 49.7 °F 45.7 °F 29.85 in NW 2.0 mph 4.0 mph 86% 0.00 in
09:03 50.0 °F 45.4 °F 29.85 in WNW 4.0 mph 5.0 mph 84% 0.00 in
09:08 50.0 °F 46.0 °F 29.85 in NW 3.0 mph 4.0 mph 86% 0.00 in
09:13 50.1 °F 46.1 °F 29.85 in NW 3.0 mph 3.0 mph 86% 0.00 in
09:19 50.3 °F 46.0 °F 29.85 in NW 2.0 mph 6.0 mph 85% 0.00 in
09:24 50.8 °F 46.2 °F 29.85 in NW 5.0 mph 6.0 mph 84% 0.00 in
09:29 50.8 °F 46.2 °F 29.85 in NW 4.0 mph 6.0 mph 84% 0.00 in
09:30 50.9 °F 46.2 °F 29.85 in NW 6.0 mph 6.0 mph 84% 0.00 in
09:34 51.4 °F 47.0 °F 29.85 in NNW 5.0 mph 6.0 mph 85% 0.00 in
09:35 51.4 °F 46.7 °F 29.85 in NNW 3.0 mph 5.0 mph 84% 0.00 in
09:36 51.6 °F 46.9 °F 29.85 in NW 3.0 mph 5.0 mph 84% 0.00 in
09:40 51.9 °F 47.5 °F 29.85 in NNW 4.0 mph 6.0 mph 85% 0.00 in
09:45 52.4 °F 48.0 °F 29.85 in NW 2.0 mph 6.0 mph 85% 0.00 in
09:50 52.8 °F 47.1 °F 29.85 in NW 4.0 mph 6.0 mph 81% 0.00 in
09:51 52.8 °F 47.5 °F 29.85 in West 4.0 mph 6.0 mph 82% 0.00 in
09:52 52.8 °F 47.5 °F 29.85 in WNW 3.0 mph 6.0 mph 82% 0.00 in
09:56 53.5 °F 48.8 °F 29.85 in North 7.0 mph 7.0 mph 84% 0.00 in
09:57 53.6 °F 48.2 °F 29.85 in NNW 5.0 mph 7.0 mph 82% 0.00 in
09:58 53.7 °F 48.3 °F 29.85 in NNE 5.0 mph 7.0 mph 82% 0.00 in
10:03 54.1 °F 48.1 °F 29.85 in North 5.0 mph 8.0 mph 80% 0.00 in
10:04 54.1 °F 47.7 °F 29.85 in NNW 2.0 mph 8.0 mph 79% 0.00 in
10:09 54.5 °F 48.8 °F 29.85 in NNW 5.0 mph 6.0 mph 81% 0.00 in
10:14 55.0 °F 49.3 °F 29.85 in WNW 2.0 mph 4.0 mph 81% 0.00 in
10:19 55.4 °F 48.7 °F 29.85 in West 4.0 mph 6.0 mph 78% 0.00 in
10:24 54.9 °F 48.2 °F 29.85 in WNW 5.0 mph 10.0 mph 78% 0.00 in
10:29 54.4 °F 48.4 °F 29.85 in WNW 8.0 mph 8.0 mph 80% 0.00 in
10:34 54.5 °F 48.8 °F 29.85 in WNW 4.0 mph 6.0 mph 81% 0.00 in
10:35 54.6 °F 48.9 °F 29.85 in WNW 4.0 mph 6.0 mph 81% 0.00 in
10:37 54.8 °F 48.8 °F 29.85 in WNW 3.0 mph 6.0 mph 80% 0.00 in
10:40 54.8 °F 48.4 °F 29.85 in WNW 7.0 mph 7.0 mph 79% 0.00 in
10:42 54.5 °F 48.1 °F 29.84 in West 5.0 mph 7.0 mph 79% 0.00 in
10:47 54.5 °F 47.8 °F 29.84 in NW 7.0 mph 8.0 mph 78% 0.00 in
10:52 54.3 °F 48.3 °F 29.84 in NW 3.0 mph 7.0 mph 80% 0.00 in
10:53 54.3 °F 48.3 °F 29.84 in NW 6.0 mph 7.0 mph 80% 0.00 in
10:57 54.7 °F 48.0 °F 29.84 in NW 4.0 mph 6.0 mph 78% 0.00 in
10:59 54.8 °F 48.8 °F 29.84 in WNW 5.0 mph 9.0 mph 80% 0.00 in
11:00 54.8 °F 48.8 °F 29.84 in West 4.0 mph 9.0 mph 80% 0.00 in
11:04 55.1 °F 47.3 °F 29.84 in NW 6.0 mph 10.0 mph 75% 0.00 in
11:05 55.3 °F 48.2 °F 29.84 in WNW 6.0 mph 9.0 mph 77% 0.00 in
11:10 55.5 °F 48.4 °F 29.84 in NNW 6.0 mph 8.0 mph 77% 0.00 in
11:11 55.7 °F 47.9 °F 29.84 in NW 3.0 mph 7.0 mph 75% 0.00 in
11:16 56.6 °F 49.5 °F 29.84 in West 6.0 mph 7.0 mph 77% 0.00 in
11:21 56.6 °F 49.1 °F 29.84 in WNW 5.0 mph 7.0 mph 76% 0.00 in
11:26 56.5 °F 48.3 °F 29.84 in WNW 6.0 mph 10.0 mph 74% 0.00 in
11:31 56.3 °F 47.8 °F 29.84 in West 3.0 mph 10.0 mph 73% 0.00 in
11:32 56.2 °F 47.3 °F 29.84 in WNW 5.0 mph 10.0 mph 72% 0.00 in
11:37 55.7 °F 47.5 °F 29.84 in NNW 3.0 mph 8.0 mph 74% 0.00 in
11:42 56.7 °F 49.9 °F 29.83 in WNW 2.0 mph 6.0 mph 78% 0.00 in
11:43 56.9 °F 49.1 °F 29.83 in NNW 3.0 mph 5.0 mph 75% 0.00 in
11:48 56.7 °F 47.0 °F 29.83 in NW 8.0 mph 9.0 mph 70% 0.00 in
11:53 56.2 °F 47.3 °F 29.83 in WNW 9.0 mph 10.0 mph 72% 0.00 in
11:58 55.8 °F 47.3 °F 29.83 in NW 5.0 mph 8.0 mph 73% 0.00 in
12:03 55.9 °F 47.4 °F 29.83 in NW 6.0 mph 8.0 mph 73% 0.00 in
12:04 56.0 °F 47.5 °F 29.83 in NW 8.0 mph 8.0 mph 73% 0.00 in
12:09 57.4 °F 47.3 °F 29.83 in NW 6.0 mph 11.0 mph 69% 0.00 in
12:14 58.1 °F 46.4 °F 29.82 in WNW 4.0 mph 10.0 mph 65% 0.00 in
12:19 58.4 °F 47.1 °F 29.82 in NNW 8.0 mph 14.0 mph 66% 0.00 in
12:24 58.6 °F 47.7 °F 29.82 in NNE 8.0 mph 12.0 mph 67% 0.00 in
12:29 59.0 °F 46.0 °F 29.82 in NW 6.0 mph 10.0 mph 62% 0.00 in
12:30 59.2 °F 46.2 °F 29.82 in NNW 7.0 mph 11.0 mph 62% 0.00 in
12:35 59.6 °F 45.7 °F 29.82 in NW 4.0 mph 13.0 mph 60% 0.00 in
12:39 60.0 °F 46.5 °F 29.82 in NNW 5.0 mph 11.0 mph 61% 0.00 in
12:44 60.3 °F 45.9 °F 29.81 in North 10.0 mph 12.0 mph 59% 0.00 in
12:48 59.7 °F 45.8 °F 29.81 in WNW 15.0 mph 15.0 mph 60% 0.00 in
12:53 59.1 °F 46.1 °F 29.82 in NNW 10.0 mph 14.0 mph 62% 0.00 in
12:54 59.1 °F 45.2 °F 29.82 in North 7.0 mph 14.0 mph 60% 0.00 in
12:58 59.6 °F 46.2 °F 29.81 in NW 4.0 mph 8.0 mph 61% 0.00 in
12:59 59.6 °F 46.2 °F 29.81 in NW 4.0 mph 8.0 mph 61% 0.00 in
13:04 59.4 °F 45.1 °F 29.81 in NNW 5.0 mph 9.0 mph 59% 0.00 in
13:09 58.6 °F 43.9 °F 29.82 in NW 4.0 mph 8.0 mph 58% 0.00 in
13:14 59.6 °F 45.7 °F 29.81 in NNE 5.0 mph 11.0 mph 60% 0.00 in
13:19 60.2 °F 45.8 °F 29.81 in NW 7.0 mph 10.0 mph 59% 0.00 in
13:24 59.6 °F 44.4 °F 29.81 in NW 7.0 mph 11.0 mph 57% 0.00 in
13:29 59.0 °F 45.6 °F 29.81 in NW 8.0 mph 8.0 mph 61% 0.00 in
13:30 59.0 °F 45.6 °F 29.81 in NW 8.0 mph 8.0 mph 61% 0.00 in
13:34 58.8 °F 45.4 °F 29.81 in NW 5.0 mph 10.0 mph 61% 0.00 in
13:35 58.8 °F 45.4 °F 29.81 in WNW 5.0 mph 8.0 mph 61% 0.00 in
13:36 58.8 °F 44.5 °F 29.81 in West 10.0 mph 10.0 mph 59% 0.00 in
13:39 58.7 °F 44.0 °F 29.81 in NW 6.0 mph 10.0 mph 58% 0.00 in
13:44 58.6 °F 43.4 °F 29.81 in WNW 4.0 mph 8.0 mph 57% 0.00 in
13:49 59.2 °F 44.5 °F 29.81 in NW 6.0 mph 8.0 mph 58% 0.00 in
13:54 59.9 °F 46.0 °F 29.81 in WNW 6.0 mph 11.0 mph 60% 0.00 in
13:56 60.1 °F 44.8 °F 29.81 in NNW 6.0 mph 8.0 mph 57% 0.00 in
13:59 60.0 °F 43.3 °F 29.81 in WNW 4.0 mph 9.0 mph 54% 0.00 in
14:01 59.8 °F 43.1 °F 29.81 in NW 10.0 mph 15.0 mph 54% 0.00 in
14:06 59.0 °F 43.8 °F 29.81 in WNW 5.0 mph 10.0 mph 57% 0.00 in
14:11 59.2 °F 45.8 °F 29.81 in NW 6.0 mph 8.0 mph 61% 0.00 in
14:16 59.5 °F 45.6 °F 29.81 in NW 9.0 mph 9.0 mph 60% 0.00 in
14:18 59.5 °F 44.7 °F 29.81 in NW 9.0 mph 10.0 mph 58% 0.00 in
14:23 60.1 °F 48.7 °F 29.81 in NNW 3.0 mph 6.0 mph 66% 0.00 in
14:24 60.3 °F 47.7 °F 29.81 in North 9.0 mph 9.0 mph 63% 0.00 in
14:28 61.5 °F 48.8 °F 29.81 in NW 6.0 mph 8.0 mph 63% 0.00 in
14:31 61.1 °F 48.4 °F 29.81 in NW 5.0 mph 8.0 mph 63% 0.00 in
14:33 60.4 °F 44.7 °F 29.81 in NNW 4.0 mph 11.0 mph 56% 0.00 in
14:34 60.4 °F 44.7 °F 29.81 in West 4.0 mph 11.0 mph 56% 0.00 in
14:37 60.3 °F 45.9 °F 29.81 in NW 6.0 mph 8.0 mph 59% 0.00 in
14:39 60.1 °F 45.3 °F 29.81 in NW 5.0 mph 7.0 mph 58% 0.00 in
14:44 60.1 °F 45.7 °F 29.81 in NW 7.0 mph 9.0 mph 59% 0.00 in
14:49 59.7 °F 44.0 °F 29.81 in West 5.0 mph 10.0 mph 56% 0.00 in
14:54 59.4 °F 44.2 °F 29.81 in WNW 6.0 mph 10.0 mph 57% 0.00 in
14:55 59.4 °F 44.6 °F 29.81 in West 4.0 mph 10.0 mph 58% 0.00 in
14:59 59.5 °F 44.3 °F 29.81 in NW 8.0 mph 10.0 mph 57% 0.00 in
15:04 59.5 °F 45.2 °F 29.81 in NW 4.0 mph 11.0 mph 59% 0.00 in
15:10 59.6 °F 43.0 °F 29.81 in NNW 7.0 mph 13.0 mph 54% 0.00 in
15:15 59.5 °F 44.3 °F 29.81 in WNW 4.0 mph 9.0 mph 57% 0.00 in
15:16 59.5 °F 44.3 °F 29.81 in West 6.0 mph 9.0 mph 57% 0.00 in
15:20 59.5 °F 44.7 °F 29.81 in NW 2.0 mph 8.0 mph 58% 0.00 in
15:25 59.8 °F 44.5 °F 29.81 in NW 8.0 mph 10.0 mph 57% 0.00 in
15:27 59.7 °F 44.0 °F 29.81 in NW 9.0 mph 10.0 mph 56% 0.00 in
15:31 59.8 °F 44.5 °F 29.81 in NW 6.0 mph 10.0 mph 57% 0.00 in
15:32 59.8 °F 45.0 °F 29.81 in West 5.0 mph 9.0 mph 58% 0.00 in
15:36 60.1 °F 45.7 °F 29.81 in NW 3.0 mph 11.0 mph 59% 0.00 in
15:42 59.9 °F 44.2 °F 29.81 in NW 5.0 mph 8.0 mph 56% 0.00 in
15:47 59.9 °F 45.5 °F 29.81 in WNW 7.0 mph 10.0 mph 59% 0.00 in
15:51 59.5 °F 45.2 °F 29.80 in NNW 7.0 mph 12.0 mph 59% 0.00 in
15:52 59.5 °F 44.3 °F 29.80 in NNW 9.0 mph 11.0 mph 57% 0.00 in
15:53 59.4 °F 44.6 °F 29.80 in NW 10.0 mph 11.0 mph 58% 0.00 in
15:57 59.3 °F 44.5 °F 29.80 in NNW 4.0 mph 11.0 mph 58% 0.00 in
15:58 59.3 °F 45.0 °F 29.80 in NNW 8.0 mph 12.0 mph 59% 0.00 in
16:03 59.3 °F 46.7 °F 29.80 in NNW 8.0 mph 8.0 mph 63% 0.00 in
16:08 59.4 °F 44.6 °F 29.80 in WNW 6.0 mph 9.0 mph 58% 0.00 in
16:16 59.8 °F 46.3 °F 29.80 in NW 4.0 mph 10.0 mph 61% 0.00 in
16:21 60.0 °F 46.1 °F 29.80 in NW 3.0 mph 9.0 mph 60% 0.00 in
16:26 60.1 °F 47.0 °F 29.80 in NNW 3.0 mph 7.0 mph 62% 0.00 in
16:27 60.2 °F 46.3 °F 29.80 in North 6.0 mph 6.0 mph 60% 0.00 in
16:32 60.0 °F 46.1 °F 29.80 in North 10.0 mph 11.0 mph 60% 0.00 in
16:33 60.0 °F 46.1 °F 29.80 in North 10.0 mph 11.0 mph 60% 0.00 in
16:36 59.7 °F 45.4 °F 29.80 in NNW 5.0 mph 10.0 mph 59% 0.00 in
16:38 59.7 °F 46.7 °F 29.80 in North 5.0 mph 10.0 mph 62% 0.00 in
16:43 59.8 °F 47.6 °F 29.80 in WNW 5.0 mph 8.0 mph 64% 0.00 in
16:48 59.6 °F 47.0 °F 29.80 in NW 7.0 mph 10.0 mph 63% 0.00 in
16:54 59.4 °F 46.0 °F 29.80 in NNW 7.0 mph 10.0 mph 61% 0.00 in
16:58 59.1 °F 46.5 °F 29.80 in NW 8.0 mph 9.0 mph 63% 0.00 in
16:59 59.0 °F 45.6 °F 29.80 in NNW 6.0 mph 9.0 mph 61% 0.00 in
17:04 58.8 °F 46.2 °F 29.81 in NNW 4.0 mph 7.0 mph 63% 0.00 in
17:09 58.8 °F 46.2 °F 29.80 in North 5.0 mph 7.0 mph 63% 0.00 in
17:14 58.7 °F 47.4 °F 29.80 in NNW 8.0 mph 8.0 mph 66% 0.00 in
17:19 58.7 °F 46.6 °F 29.81 in NW 6.0 mph 8.0 mph 64% 0.00 in
17:24 58.6 °F 46.1 °F 29.81 in NNW 9.0 mph 10.0 mph 63% 0.00 in
17:29 58.6 °F 46.9 °F 29.81 in NNW 5.0 mph 7.0 mph 65% 0.00 in
17:31 58.6 °F 46.1 °F 29.81 in NNW 8.0 mph 8.0 mph 63% 0.00 in
17:32 58.6 °F 46.5 °F 29.81 in NNW 5.0 mph 8.0 mph 64% 0.00 in
17:35 58.5 °F 46.0 °F 29.81 in NNW 3.0 mph 9.0 mph 63% 0.00 in
17:36 58.5 °F 46.4 °F 29.81 in NW 7.0 mph 8.0 mph 64% 0.00 in
17:37 58.5 °F 45.5 °F 29.81 in WNW 6.0 mph 8.0 mph 62% 0.00 in
17:41 58.4 °F 45.0 °F 29.81 in WNW 5.0 mph 7.0 mph 61% 0.00 in
17:46 58.4 °F 46.7 °F 29.81 in NNW 4.0 mph 5.0 mph 65% 0.00 in
17:47 58.4 °F 46.7 °F 29.81 in NNW 4.0 mph 5.0 mph 65% 0.00 in
17:51 58.4 °F 47.1 °F 29.81 in NW 3.0 mph 4.0 mph 66% 0.00 in
17:52 58.4 °F 47.1 °F 29.81 in NW 4.0 mph 4.0 mph 66% 0.00 in
17:58 58.3 °F 46.2 °F 29.81 in NNE 5.0 mph 9.0 mph 64% 0.00 in
18:03 57.9 °F 45.8 °F 29.81 in NNE 5.0 mph 10.0 mph 64% 0.00 in
18:08 57.6 °F 45.9 °F 29.82 in NNW 3.0 mph 8.0 mph 65% 0.00 in
18:09 57.6 °F 46.7 °F 29.82 in North 4.0 mph 8.0 mph 67% 0.00 in
18:14 57.4 °F 46.2 °F 29.82 in North 6.0 mph 8.0 mph 66% 0.00 in
18:19 57.2 °F 46.0 °F 29.82 in NW 4.0 mph 9.0 mph 66% 0.00 in
18:24 57.1 °F 45.5 °F 29.81 in NW 4.0 mph 8.0 mph 65% 0.00 in
18:29 57.0 °F 45.8 °F 29.81 in NNE 5.0 mph 6.0 mph 66% 0.00 in
18:34 57.0 °F 46.2 °F 29.81 in NW 4.0 mph 6.0 mph 67% 0.00 in
18:35 57.0 °F 46.2 °F 29.81 in NNW 4.0 mph 6.0 mph 67% 0.00 in
18:36 57.0 °F 46.6 °F 29.81 in North 6.0 mph 7.0 mph 68% 0.00 in
18:41 57.0 °F 46.2 °F 29.81 in North 3.0 mph 5.0 mph 67% 0.00 in
18:46 57.1 °F 46.7 °F 29.81 in NNE 3.0 mph 6.0 mph 68% 0.00 in
18:51 57.1 °F 46.7 °F 29.81 in North 6.0 mph 8.0 mph 68% 0.00 in
18:52 57.1 °F 46.3 °F 29.81 in NW 3.0 mph 8.0 mph 67% 0.00 in
18:56 57.1 °F 46.3 °F 29.81 in NNW 6.0 mph 9.0 mph 67% 0.00 in
18:57 57.1 °F 46.3 °F 29.81 in NNE 5.0 mph 9.0 mph 67% 0.00 in
19:01 57.1 °F 46.7 °F 29.81 in NNW 5.0 mph 6.0 mph 68% 0.00 in
19:06 57.0 °F 46.6 °F 29.81 in NNW 4.0 mph 6.0 mph 68% 0.00 in
19:11 57.0 °F 47.3 °F 29.81 in NNW 4.0 mph 5.0 mph 70% 0.00 in
19:12 57.0 °F 46.9 °F 29.81 in NNW 3.0 mph 5.0 mph 69% 0.00 in
19:17 56.9 °F 46.8 °F 29.81 in NNW 4.0 mph 7.0 mph 69% 0.00 in
19:18 56.8 °F 46.8 °F 29.81 in NNW 4.0 mph 7.0 mph 69% 0.00 in
19:23 56.8 °F 46.8 °F 29.81 in NNW 5.0 mph 6.0 mph 69% 0.00 in
19:28 56.7 °F 46.3 °F 29.81 in NNE 3.0 mph 8.0 mph 68% 0.00 in
19:33 56.6 °F 46.6 °F 29.81 in NNE 5.0 mph 6.0 mph 69% 0.00 in
19:34 56.6 °F 46.6 °F 29.81 in NNW 3.0 mph 6.0 mph 69% 0.00 in
19:35 56.6 °F 46.6 °F 29.81 in NNW 2.0 mph 5.0 mph 69% 0.00 in
19:38 56.5 °F 46.8 °F 29.81 in NNW 2.0 mph 4.0 mph 70% 0.00 in
19:41 56.5 °F 46.8 °F 29.81 in NNW 2.0 mph 4.0 mph 70% 0.00 in
19:43 56.4 °F 47.1 °F 29.81 in North 3.0 mph 3.0 mph 71% 0.00 in
19:46 56.4 °F 46.8 °F 29.81 in NNE 2.0 mph 4.0 mph 70% 0.00 in
19:52 56.3 °F 46.7 °F 29.81 in North 1.0 mph 5.0 mph 70% 0.00 in
19:57 56.2 °F 47.3 °F 29.81 in NNW 3.0 mph 4.0 mph 72% 0.00 in
19:58 56.1 °F 46.5 °F 29.81 in North 3.0 mph 4.0 mph 70% 0.00 in
20:02 56.1 °F 46.5 °F 29.81 in NNW 2.0 mph 3.0 mph 70% 0.00 in
20:07 56.0 °F 46.7 °F 29.81 in NNW 2.0 mph 3.0 mph 71% 0.00 in
20:08 56.0 °F 46.7 °F 29.80 in NNW 1.0 mph 3.0 mph 71% 0.00 in
20:13 55.8 °F 46.9 °F 29.80 in NNW 1.0 mph 2.0 mph 72% 0.00 in
20:18 55.6 °F 47.1 °F 29.80 in NNW 2.0 mph 2.0 mph 73% 0.00 in
20:23 55.5 °F 47.0 °F 29.80 in NNW 1.0 mph 2.0 mph 73% 0.00 in
20:28 55.4 °F 46.9 °F 29.80 in NNW 1.0 mph 2.0 mph 73% 0.00 in
20:29 55.4 °F 47.3 °F 29.80 in NNW 1.0 mph 2.0 mph 74% 0.00 in
20:34 55.3 °F 47.2 °F 29.80 in NNW 1.0 mph 1.0 mph 74% 0.00 in
20:39 55.1 °F 47.0 °F 29.80 in North 1.0 mph 2.0 mph 74% 0.00 in
20:44 54.9 °F 47.5 °F 29.80 in North 1.0 mph 1.0 mph 76% 0.00 in
20:49 54.7 °F 47.3 °F 29.80 in Calm     76% 0.00 in
20:55 54.5 °F 47.1 °F 29.80 in North 1.0 mph 1.0 mph 76% 0.00 in
20:57 54.5 °F 47.5 °F 29.80 in North 1.0 mph 1.0 mph 77% 0.00 in
21:00 54.3 °F 47.6 °F 29.80 in Calm   1.0 mph 78% 0.00 in
21:05 53.9 °F 47.5 °F 29.80 in Calm   1.0 mph 79% 0.00 in
21:11 53.6 °F 47.3 °F 29.80 in Calm   1.0 mph 79% 0.00 in
21:16 53.5 °F 47.2 °F 29.80 in Calm     79% 0.00 in
21:21 53.4 °F 47.1 °F 29.80 in Calm     79% 0.00 in
21:27 53.0 °F 47.3 °F 29.80 in Calm     81% 0.00 in
21:28 53.0 °F 47.7 °F 29.80 in Calm     82% 0.00 in
21:32 52.8 °F 47.5 °F 29.80 in Calm     82% 0.00 in
21:37 52.7 °F 47.4 °F 29.80 in Calm     82% 0.00 in
21:38 52.7 °F 47.4 °F 29.80 in Calm     82% 0.00 in
21:43 52.7 °F 47.7 °F 29.80 in Calm     83% 0.00 in
21:48 52.7 °F 48.0 °F 29.80 in Calm   1.0 mph 84% 0.00 in
21:53 52.6 °F 47.9 °F 29.80 in Calm     84% 0.00 in
21:54 52.7 °F 48.0 °F 29.80 in Calm     84% 0.00 in
21:59 52.6 °F 47.9 °F 29.80 in Calm     84% 0.00 in
22:04 52.5 °F 47.8 °F 29.80 in Calm     84% 0.00 in
22:09 52.5 °F 47.8 °F 29.80 in Calm     84% 0.00 in
22:10 52.5 °F 47.8 °F 29.80 in Calm     84% 0.00 in
22:14 52.6 °F 48.2 °F 29.80 in Calm     85% 0.00 in
22:15 52.6 °F 48.2 °F 29.80 in Calm     85% 0.00 in
22:20 52.6 °F 48.8 °F 29.80 in Calm     87% 0.00 in
22:25 52.5 °F 48.8 °F 29.80 in Calm     87% 0.00 in
22:28 52.4 °F 48.7 °F 29.80 in Calm     87% 0.00 in
22:32 52.4 °F 48.3 °F 29.81 in Calm     86% 0.00 in
22:35 52.5 °F 48.4 °F 29.81 in Calm     86% 0.00 in
22:37 52.5 °F 48.8 °F 29.80 in Calm     87% 0.00 in
22:39 52.5 °F 48.8 °F 29.80 in Calm   1.0 mph 87% 0.00 in
22:44 52.5 °F 48.8 °F 29.81 in Calm     87% 0.00 in
22:45 52.5 °F 48.4 °F 29.81 in Calm     86% 0.00 in
22:50 52.5 °F 48.4 °F 29.81 in Calm     86% 0.00 in
22:51 52.5 °F 48.1 °F 29.81 in Calm   1.0 mph 85% 0.00 in
22:52 52.6 °F 48.2 °F 29.81 in Calm   1.0 mph 85% 0.00 in
22:58 52.7 °F 48.0 °F 29.81 in Calm     84% 0.00 in
23:01 52.7 °F 48.0 °F 29.81 in Calm   1.0 mph 84% 0.00 in
23:03 52.8 °F 47.8 °F 29.81 in Calm   1.0 mph 83% 0.00 in
23:08 52.9 °F 48.2 °F 29.81 in Calm   1.0 mph 84% 0.00 in
23:14 53.0 °F 48.3 °F 29.81 in Calm     84% 0.00 in
23:19 52.9 °F 48.2 °F 29.81 in Calm   1.0 mph 84% 0.00 in
23:24 52.9 °F 48.5 °F 29.81 in WNW 1.0 mph 1.0 mph 85% 0.00 in
23:29 52.8 °F 48.4 °F 29.82 in WNW 1.0 mph 1.0 mph 85% 0.00 in
23:30 52.8 °F 48.4 °F 29.82 in Calm   1.0 mph 85% 0.00 in
23:31 52.8 °F 48.4 °F 29.82 in Calm   1.0 mph 85% 0.00 in
23:35 52.8 °F 48.4 °F 29.82 in WNW 1.0 mph 1.0 mph 85% 0.00 in
23:36 52.7 °F 48.3 °F 29.82 in WNW 1.0 mph 1.0 mph 85% 0.00 in
23:41 52.7 °F 48.0 °F 29.82 in WNW 1.0 mph 2.0 mph 84% 0.00 in
23:42 52.7 °F 48.3 °F 29.82 in WNW 1.0 mph 2.0 mph 85% 0.00 in
23:43 52.7 °F 48.3 °F 29.82 in Calm   2.0 mph 85% 0.00 in
23:48 52.6 °F 47.9 °F 29.82 in NW 1.0 mph 1.0 mph 84% 0.00 in
23:54 52.5 °F 47.8 °F 29.82 in WNW 1.0 mph 1.0 mph 84% 0.00 in
23:55 52.5 °F 47.8 °F 29.82 in WNW 1.0 mph 1.0 mph 84% 0.00 in
Compliments of Weather Underground